Mt. Pocono, PA

8:26 AM EDT on June 23, 2018 (GMT -0400)
Pocono Mountains Municipal

Weather History for KMPO - October, 2017

Change the Weather History Date:

Friday, October 13, 2017

  Actual Average Record
Temperature  
Mean Temperature 48 °F 49 °F  
Max Temperature 53 °F 58 °F 80 °F (1954)
Min Temperature 43 °F 40 °F 17 °F (1906)
Degree Days  
Heating Degree Days 17 16  
Month to date heating degree days 88 186  
Since 1 July heating degree days 338 454  
Cooling Degree Days 0 0  
Month to date cooling degree days 12 0  
Year to date cooling degree days 287 313  
Moisture  
Dew Point 48 °F    
Average Humidity 95    
Maximum Humidity 100    
Minimum Humidity 89    
Precipitation  
Precipitation 0.00 in 0.13 in 2.00 in (1927)
Month to date precipitation 2.90 1.90  
Year to date precipitation 36.33 38.24  
Sea Level Pressure  
Sea Level Pressure 30.39 in    
Wind  
Wind Speed 7 mph (ESE)    
Max Wind Speed 12 mph    
Max Gust Speed 17 mph    
Visibility 9 miles    
Events Fog    
T = Trace of Precipitation, MM = Missing Value Source: NWS Daily Summary

Daily Weather History Graph

Daily Weather History Graph

Search for Another Location

Airport or City:

Astronomy

Oct. 13, 2017 Rise Set
Actual Time 7:11 AM EDT 6:23 PM EDT
Civil Twilight 6:43 AM EDT 6:51 PM EDT
Nautical Twilight 6:11 AM EDT 7:23 PM EDT
Astronomical Twilight 5:39 AM EDT 7:54 PM EDT
Moon 12:28 AM EDT (10/13) 3:09 PM EDT (10/13)
Length of Visible Light 12h 07m
Length of Day
11h 12m
Last Quarter, 37% of the Moon is Illuminated
Oct 13
Last Quarter
Oct 19
New
Oct 27
First Quarter
Nov 4
Full
Nov 10
Last Quarter

Hourly Weather History & Observations

Time (EDT) Temp. Windchill Dew Point Humidity Pressure Visibility Wind Dir Wind Speed Gust Speed Precip Events Conditions
12:06 AM 46.9 °F - 44.1 °F 90% 30.38 in 10.0 mi ESE 8.1 mph - N/A   Mostly Cloudy
12:53 AM 46.9 °F - 45.0 °F 93% 30.41 in 10.0 mi East 5.8 mph - N/A   Overcast
1:04 AM 46.9 °F - 45.0 °F 93% 30.39 in 10.0 mi ESE 8.1 mph - N/A   Overcast
1:32 AM 46.9 °F - 45.0 °F 93% 30.40 in 10.0 mi ESE 4.6 mph - N/A   Overcast
1:53 AM 46.0 °F 43.1 °F 45.0 °F 96% 30.43 in 10.0 mi ESE 5.8 mph - N/A   Overcast
2:34 AM 46.0 °F 41.0 °F 45.0 °F 96% 30.39 in 10.0 mi East 10.4 mph - N/A   Overcast
2:53 AM 46.0 °F 40.6 °F 44.1 °F 93% 30.41 in 10.0 mi East 11.5 mph - N/A   Overcast
3:53 AM 44.1 °F 38.1 °F 43.0 °F 96% 30.41 in 10.0 mi ESE 11.5 mph - N/A   Overcast
4:53 AM 43.0 °F 38.2 °F 41.0 °F 93% 30.42 in 10.0 mi ESE 8.1 mph - N/A   Overcast
5:48 AM 42.8 °F 37.5 °F 41.0 °F 93% 30.39 in 10.0 mi East 9.2 mph - N/A   Overcast
5:53 AM 43.0 °F 37.2 °F 41.0 °F 93% 30.42 in 10.0 mi East 10.4 mph - N/A   Overcast
6:33 AM 43.0 °F 37.7 °F 42.1 °F 97% 30.41 in 10.0 mi East 9.2 mph - N/A   Overcast
6:51 AM 42.8 °F 37.5 °F 42.8 °F 100% 30.41 in 10.0 mi East 9.2 mph - N/A   Overcast
6:53 AM 43.0 °F 37.7 °F 43.0 °F 100% 30.43 in 10.0 mi East 9.2 mph - N/A   Overcast
7:07 AM 43.0 °F 37.7 °F 43.0 °F 100% 30.41 in 10.0 mi East 9.2 mph - N/A   Overcast
7:53 AM 43.0 °F 38.2 °F 43.0 °F 100% 30.45 in 10.0 mi East 8.1 mph - N/A   Overcast
8:53 AM 44.1 °F 38.6 °F 44.1 °F 100% 30.45 in 10.0 mi East 10.4 mph - N/A   Overcast
9:53 AM 45.0 °F 41.2 °F 44.1 °F 97% 30.46 in 10.0 mi East 6.9 mph - N/A   Overcast
10:53 AM 46.0 °F 42.5 °F 45.0 °F 96% 30.46 in 10.0 mi ESE 6.9 mph - N/A   Overcast
11:53 AM 48.0 °F - 46.0 °F 93% 30.44 in 10.0 mi ESE 8.1 mph - N/A   Overcast
12:53 PM 48.9 °F - 46.9 °F 93% 30.42 in 10.0 mi ESE 6.9 mph - N/A   Overcast
1:53 PM 51.1 °F - 48.9 °F 92% 30.40 in 10.0 mi SE 8.1 mph - N/A   Overcast
2:53 PM 53.1 °F - 50.0 °F 89% 30.38 in 10.0 mi SE 8.1 mph - N/A   Overcast
3:01 PM 53.1 °F - 50.0 °F 89% 30.36 in 10.0 mi SSE 6.9 mph - N/A   Overcast
3:28 PM 53.1 °F - 50.0 °F 89% 30.35 in 10.0 mi SE 6.9 mph - N/A   Overcast
3:53 PM 53.1 °F - 51.1 °F 93% 30.38 in 10.0 mi SE 6.9 mph - N/A   Overcast
4:53 PM 53.1 °F - 51.1 °F 93% 30.37 in 10.0 mi SSE 5.8 mph - N/A   Overcast
5:53 PM 53.1 °F - 52.0 °F 96% 30.37 in 10.0 mi SE 5.8 mph - N/A   Overcast
6:19 PM 53.1 °F - 52.0 °F 96% 30.34 in 10.0 mi ESE 4.6 mph - N/A   Overcast
6:38 PM 52.0 °F - 52.0 °F 100% 30.35 in 10.0 mi ESE 3.5 mph - N/A   Overcast
6:53 PM 52.0 °F - 52.0 °F 100% 30.38 in 8.0 mi East 3.5 mph - N/A   Overcast
7:31 PM 52.0 °F - 52.0 °F 100% 30.35 in 4.0 mi ESE 5.8 mph - N/A   Overcast
7:53 PM 52.0 °F - 52.0 °F 100% 30.37 in 4.0 mi ESE 6.9 mph - N/A   Overcast
8:53 PM 53.1 °F - 53.1 °F 100% 30.37 in 10.0 mi SE 4.6 mph - N/A   Overcast
9:42 PM 53.1 °F - 53.1 °F 100% 30.35 in 7.0 mi SE 5.8 mph - N/A   Overcast
9:53 PM 53.1 °F - 53.1 °F 100% 30.37 in 6.0 mi ESE 4.6 mph - N/A   Overcast
10:44 PM 53.1 °F - 53.1 °F 100% 30.34 in 2.5 mi ESE 4.6 mph - N/A   Overcast
10:53 PM 53.1 °F - 53.1 °F 100% 30.36 in 1.8 mi ESE 4.6 mph - N/A   Overcast
11:12 PM 53.1 °F - 53.1 °F 100% 30.34 in 0.8 mi ESE 5.8 mph - N/A   Mist
11:53 PM 53.1 °F - 53.1 °F 100% 30.35 in 0.5 mi SE 4.6 mph - N/A Fog Fog